#timestamp,LO_Frequency,Hit,StdDev 
1615579215.2,286047014.6,Y
1615579235.0,286047008.8,P
1615579235.9,286047008.8,P
1615579255.8,286047003.0,P
1615579275.6,286047004.9,N
1615579295.5,286047007.6,Y
1615579315.3,286046999.1,P
1615579335.1,286046996.5,N
1615579355.9,286046997.7,N
1615579375.7,286046996.3,N
1615579395.6,286046989.0,N
1615579415.4,286046992.0,N
1615579435.2,286046997.9,N
1615579455.1,286046999.6,N
1615579456.0,286046999.6,N
1615579475.8,286046996.1,N
1615579495.6,286046993.0,N
1615579515.5,286047004.4,N
1615579535.3,286047011.7,N
1615579555.2,286047012.1,N
1615579575.9,286047012.6,N
1615579595.7,286047020.2,N
1615579615.6,286047019.1,N
1615579635.4,286047027.9,Y
1615579655.2,286047024.8,P
1615579675.1,286047029.5,N
1615579676.0,286047029.5,N
1615579695.8,286047024.3,N
1615579715.7,286047026.6,N
1615579735.5,286047021.6,N
1615579755.3,286047022.3,N
1615579775.2,286047024.7,Y
1615579795.0,286047004.6,P
1615579795.9,286047004.6,N
1615579815.7,286047001.2,N
1615579835.6,286047000.5,N
1615579855.4,286047000.5,N
1615579875.3,286047010.2,N
1615579895.1,286047007.4,N
1615579896.0,286047007.4,N
1615579915.8,286047003.5,N
1615579935.7,286047006.6,N
1615579955.5,286046996.7,N
1615579975.3,286047004.3,N
1615579995.2,286047006.0,N
1615580015.0,286047000.4,N
1615580015.9,286047000.4,N
1615580035.8,286047008.6,N
1615580055.6,286047012.2,N
1615580075.4,286047010.0,N
1615580095.3,286047003.8,N
1615580115.1,286047000.5,N
1615580135.8,286046996.7,N
1615580155.7,286046999.3,N
1615580175.5,286046999.3,N
1615580195.4,286046999.5,N
1615580215.2,286046998.7,N
1615580235.0,286046999.3,N
1615580235.9,286046999.3,N
1615580255.8,286047000.7,N
1615580275.6,286047000.6,N
1615580295.4,286046998.2,N
1615580315.3,286046995.4,N
1615580335.1,286046996.3,N
1615580355.9,286046991.7,N
1615580375.7,286046991.5,N
1615580395.5,286046996.5,N
1615580415.4,286047006.4,N
1615580435.2,286047014.0,N
1615580455.1,286047019.2,Y
1615580456.0,286047019.2,P
1615580475.8,286047019.7,N
1615580495.6,286047016.7,N
1615580515.5,286047016.0,N
1615580535.3,286047026.3,Y
1615580555.1,286047016.1,P
1615580575.9,286047013.2,P
1615580595.7,286047014.0,P
1615580615.6,286047012.8,Y
1615580635.4,286046998.7,P
1615580655.2,286047002.5,N
1615580675.1,286047000.5,N
1615580676.0,286047000.5,N
1615580695.8,286047004.9,N
1615580715.7,286047010.1,N
1615580735.5,286047011.9,N
1615580755.3,286047004.5,N
1615580775.2,286047013.4,N
1615580795.9,286047004.7,N
1615580815.7,286046994.9,N
1615580835.6,286046986.9,N
1615580855.4,286046983.1,N
1615580875.3,286046984.8,N
1615580895.1,286046978.2,N
1615580896.0,286046978.2,N
1615580915.8,286046971.9,N
1615580935.7,286046971.9,N
1615580955.5,286046971.1,N
1615580975.3,286046974.3,N
1615580995.2,286046981.9,N
1615581015.0,286046997.0,N
1615581015.9,286046997.0,N
1615581035.8,286046997.6,N
1615581055.6,286046990.3,N
1615581075.4,286046992.7,N
1615581095.3,286046995.7,N
1615581115.1,286047001.7,N
1615581135.9,286047008.1,N
1615581155.7,286047011.4,N
1615581175.5,286047003.5,N
1615581195.4,286046997.5,N
1615581215.2,286046996.2,N
1615581235.0,286046993.0,N
1615581235.9,286046993.0,N
1615581255.8,286046988.9,N
1615581275.6,286046993.1,N
1615581295.5,286046998.0,N
1615581315.3,286046988.6,N
1615581335.1,286046996.9,N
1615581355.9,286046996.6,N
1615581375.7,286046996.4,N
1615581395.6,286046990.5,N
1615581415.4,286046987.3,N
1615581435.2,286046980.1,N
1615581455.1,286046975.1,N
1615581456.0,286046975.1,N
1615581475.8,286046972.9,N
1615581495.7,286046965.9,Y
1615581515.5,286046972.3,P
1615581535.3,286046969.8,P
1615581555.2,286046974.8,N
1615581575.0,286046977.2,N
1615581575.9,286046977.2,Y
1615581595.7,286046995.2,P
1615581615.6,286046995.2,N
1615581635.4,286046993.3,N
1615581655.3,286046997.5,N
1615581675.1,286046990.4,N
1615581676.0,286046990.4,N
1615581695.8,286046991.9,N
1615581715.7,286047005.4,N
1615581735.5,286047008.1,N
1615581755.3,286047006.2,N
1615581775.2,286047001.6,N
1615581795.0,286047002.5,N
1615581795.9,286047002.5,N
1615581815.8,286046997.7,N
1615581835.6,286046997.4,N
1615581855.4,286046986.9,N
1615581875.3,286046984.2,N
1615581895.1,286046992.5,N
1615581915.8,286046995.5,N
1615581935.7,286046997.0,N
1615581955.5,286046992.1,N
1615581975.4,286046990.6,N
1615581995.2,286046994.7,N
1615582015.0,286046998.6,N
1615582015.9,286046998.6,N
1615582035.8,286047001.1,N
1615582055.6,286046994.9,N
1615582075.5,286046998.8,N
1615582095.3,286046999.1,N
1615582115.1,286047002.3,N
1615582135.9,286046998.4,N
1615582155.7,286046998.0,N
1615582175.5,286047004.4,N
1615582195.4,286047004.1,N
1615582215.2,286047005.0,N
1615582235.1,286047012.4,N
1615582255.9,286047010.4,N
1615582275.7,286047015.9,N
1615582295.5,286047009.2,N
1615582315.4,286047009.4,N
1615582335.2,286047011.0,N
1615582355.1,286047003.3,N
1615582356.0,286047003.3,N
1615582375.8,286047006.0,N
1615582395.6,286047014.5,N
1615582415.5,286047006.3,N
1615582435.3,286047011.6,N
1615582455.1,286047015.0,N
1615582475.9,286047010.0,N
1615582495.7,286047006.8,N
1615582515.6,286047007.9,N
1615582535.4,286047009.3,N
1615582555.2,286047011.8,N
1615582575.1,286047013.1,N
1615582576.0,286047013.1,N
1615582595.8,286047005.0,N
1615582615.7,286047009.6,N
1615582635.5,286047012.9,N
1615582655.3,286047019.0,Y
1615582675.2,286047018.3,P
1615582695.0,286047021.3,P
1615582695.9,286047021.3,P
1615582715.8,286047030.4,Y
1615582735.6,286047009.6,P
1615582755.4,286047007.5,N
1615582775.3,286047003.4,N
1615582795.1,286047002.5,N
